Weather reports worldwide

Advertisment
Bolzano, Italy (16020): temperature & dewpoint: 17.04.2018 01:00:00 - 23.04.2018 01:00:00 (CEST)Bolzano, Italy (16020): wind speed: 17.04.2018 01:00:00 - 23.04.2018 01:00:00 (CEST)Bolzano, Italy (16020): wind direction: 17.04.2018 01:00:00 - 23.04.2018 01:00:00 (CEST)Bolzano, Italy (16020): reduced air pressure: 17.04.2018 01:00:00 - 23.04.2018 01:00:00 (CEST)Bolzano, Italy (16020): visibility: 17.04.2018 01:00:00 - 23.04.2018 01:00:00 (CEST)Bolzano, Italy (16020): precipitation: 17.04.2018 01:00:00 - 23.04.2018 01:00:00 (CEST)
Date & Time tt [°C] td [°C] ff [km/h] ff [kn] dd ppp [hPa] vv [km] rr [mm]
23.04.2018 01:00:00 - - - - - - - -
23.04.2018 00:00:00 - - - - - - - -
22.04.2018 23:00:00 19,6 8,4 5 3 - 1016,4 10 -
22.04.2018 22:00:00 23,0 9,0 11 6 SSE - 10 -
22.04.2018 21:00:00 23,0 9,0 13 7 SSE - 10 -
22.04.2018 20:00:00 23,8 8,0 16 9 SSE 1013,4 30 0,0
22.04.2018 19:00:00 26,0 8,0 16 9 SSE - 10 -
22.04.2018 18:00:00 27,0 11,0 13 7 S - 10 -
22.04.2018 17:00:00 28,4 8,3 13 7 SSE 1012,0 30 -
22.04.2018 16:00:00 28,0 10,0 9 5 SE - 10 -
22.04.2018 15:00:00 28,0 8,0 9 5 S - 10 -
22.04.2018 14:00:00 26,6 7,6 8 4 S 1014,5 10 0,0
22.04.2018 13:00:00 24,0 7,0 4 2 - - 10 -
22.04.2018 12:00:00 22,0 8,0 5 3 - - 10 -
22.04.2018 11:00:00 20,5 8,5 5 3 - 1018,1 10 -
22.04.2018 10:00:00 18,0 8,0 4 2 - - 10 -
22.04.2018 09:00:00 16,0 8,0 2 1 - - 10 -
22.04.2018 08:00:00 11,7 8,5 2 1 SE 1020,6 50 0,0
22.04.2018 07:00:00 12,0 8,0 5 3 ENE - 10 -
22.04.2018 06:00:00 - - - - - - - -
22.04.2018 05:00:00 11,0 8,2 2 1 E 1020,1 - -
22.04.2018 04:00:00 - - - - - - - -
22.04.2018 03:00:00 - - - - - - - -
22.04.2018 02:00:00 14,8 8,4 2 1 N 1019,5 - 0,0
22.04.2018 01:00:00 - - - - - - - -
22.04.2018 00:00:00 - - - - - - - -
21.04.2018 23:00:00 17,6 8,0 4 2 - 1018,1 10 -
21.04.2018 22:00:00 21,0 8,0 5 3 - - 10 -
21.04.2018 21:00:00 23,0 6,0 9 5 S - 10 -
21.04.2018 20:00:00 23,8 6,0 11 6 SSE 1014,9 30 0,0
21.04.2018 19:00:00 28,0 6,0 9 5 SE - 10 -
21.04.2018 18:00:00 29,0 7,0 8 4 S - 10 -
21.04.2018 17:00:00 29,0 5,4 9 5 S 1014,6 30 -
21.04.2018 16:00:00 27,0 7,0 9 5 S - 10 -
21.04.2018 15:00:00 27,0 7,0 5 3 - - 10 -
21.04.2018 14:00:00 26,4 7,1 4 2 - 1017,9 10 0,0
21.04.2018 13:00:00 24,0 5,0 4 2 - - 10 -
21.04.2018 12:00:00 22,0 4,0 4 2 - - 10 -
21.04.2018 11:00:00 21,0 5,3 4 2 - 1021,9 10 -
21.04.2018 10:00:00 18,0 5,0 8 4 SE - 10 -
21.04.2018 09:00:00 15,0 6,0 0 0 N - 10 -
21.04.2018 08:00:00 10,8 6,7 4 2 ESE 1024,4 28 0,0
21.04.2018 07:00:00 9,0 6,0 2 1 - - 10 -
21.04.2018 06:00:00 - - - - - - - -
21.04.2018 05:00:00 10,3 6,2 2 1 W 1024,0 - -
21.04.2018 04:00:00 - - - - - - - -
21.04.2018 03:00:00 - - - - - - - -
21.04.2018 02:00:00 12,6 8,1 4 2 SE 1023,4 - 0,0
21.04.2018 01:00:00 - - - - - - - -
21.04.2018 00:00:00 - - - - - - - -
20.04.2018 23:00:00 16,6 8,5 4 2 - 1022,1 10 -
20.04.2018 22:00:00 21,0 7,0 4 2 - - 10 -
20.04.2018 21:00:00 19,0 9,0 4 2 - - 10 -
20.04.2018 20:00:00 20,9 8,9 4 2 WNW 1019,6 30 0,0
20.04.2018 19:00:00 28,0 3,0 8 4 SE - 10 -
20.04.2018 18:00:00 29,0 9,0 8 4 SSW - 10 -
20.04.2018 17:00:00 29,0 9,0 5 3 SSW 1019,4 26 -
20.04.2018 16:00:00 29,0 6,0 4 2 - - 10 -
20.04.2018 15:00:00 27,0 7,0 4 2 - - 10 -
20.04.2018 14:00:00 25,7 6,2 4 2 - 1022,9 10 0,0
20.04.2018 13:00:00 24,0 6,0 4 2 - - 10 -
20.04.2018 12:00:00 22,0 6,0 4 2 - - 10 -
20.04.2018 11:00:00 19,8 5,9 2 1 - 1026,8 10 -
20.04.2018 10:00:00 17,0 7,0 4 2 - - 10 -
20.04.2018 09:00:00 15,0 8,0 2 1 - - 10 -
20.04.2018 08:00:00 9,8 6,6 2 1 NNE 1028,7 20 0,0
20.04.2018 07:00:00 9,0 7,0 0 0 N - 10 -
20.04.2018 06:00:00 - - - - - - - -
20.04.2018 05:00:00 11,1 7,3 2 1 SSE 1028,0 - -
20.04.2018 04:00:00 - - - - - - - -
20.04.2018 03:00:00 - - - - - - - -
20.04.2018 02:00:00 12,3 7,9 0 0 N 1027,6 - 0,0
20.04.2018 01:00:00 - - - - - - - -
20.04.2018 00:00:00 - - - - - - - -
19.04.2018 23:00:00 16,5 7,6 2 1 W 1026,4 18 -
19.04.2018 22:00:00 20,0 7,0 4 2 - - 10 -
19.04.2018 21:00:00 22,0 7,0 9 5 SSE - 10 -
19.04.2018 20:00:00 23,1 6,7 13 7 SSE 1023,6 25 0,0
19.04.2018 19:00:00 26,0 6,0 13 7 S - 10 -
19.04.2018 18:00:00 27,0 6,0 15 8 S - 10 -
19.04.2018 17:00:00 28,0 5,5 11 6 S 1022,4 10 -
19.04.2018 16:00:00 27,0 4,0 11 6 S - 10 -
19.04.2018 15:00:00 26,0 7,0 9 5 S - 10 -
19.04.2018 14:00:00 24,9 5,6 4 2 - 1025,3 10 0,0
19.04.2018 13:00:00 23,0 4,0 4 2 - - 10 -
19.04.2018 12:00:00 21,0 5,0 4 2 - - 10 -
19.04.2018 11:00:00 19,4 3,1 5 3 - 1029,4 10 -
19.04.2018 10:00:00 17,0 5,0 4 2 - - 10 -
19.04.2018 09:00:00 13,0 5,0 0 0 N - 10 -
19.04.2018 08:00:00 9,5 5,3 4 2 SE 1031,9 50 0,0
19.04.2018 07:00:00 9,0 4,0 0 0 N - 10 -
19.04.2018 06:00:00 - - - - - - - -
19.04.2018 05:00:00 11,1 4,4 5 3 ESE 1031,2 - -
19.04.2018 04:00:00 - - - - - - - -
19.04.2018 03:00:00 - - - - - - - -
19.04.2018 02:00:00 10,7 5,2 4 2 S 1030,9 - 0,0
19.04.2018 01:00:00 - - - - - - - -
19.04.2018 00:00:00 - - - - - - - -
18.04.2018 23:00:00 14,8 6,2 4 2 - 1029,1 10 -
18.04.2018 22:00:00 20,0 5,0 2 1 - - 10 -
18.04.2018 21:00:00 21,0 4,0 8 4 SSE - 10 -
18.04.2018 20:00:00 22,6 3,5 13 7 SE 1025,3 10 0,0
18.04.2018 19:00:00 26,0 2,0 9 5 SSE - 10 -
18.04.2018 18:00:00 28,0 6,0 5 3 - - 10 -
18.04.2018 17:00:00 27,9 3,4 5 3 - 1023,9 10 -
18.04.2018 16:00:00 28,0 2,0 2 1 - - 10 -
18.04.2018 15:00:00 26,0 3,0 0 0 N - 10 -
18.04.2018 14:00:00 25,0 1,5 0 0 N 1026,6 10 0,0
18.04.2018 13:00:00 23,0 5,0 0 0 N - 10 -
18.04.2018 12:00:00 20,0 4,0 4 2 - - 10 -
18.04.2018 11:00:00 19,0 4,0 0 0 N 1029,8 10 -
18.04.2018 10:00:00 16,0 5,0 5 3 ESE - 10 -
18.04.2018 09:00:00 12,0 6,0 0 0 N - 10 -
18.04.2018 08:00:00 9,3 4,7 0 0 N 1031,5 10 0,0
18.04.2018 07:00:00 8,0 4,0 0 0 N - 10 -
18.04.2018 06:00:00 - - - - - - - -
18.04.2018 05:00:00 8,7 4,2 2 1 N 1029,9 - -
18.04.2018 04:00:00 - - - - - - - -
18.04.2018 03:00:00 - - - - - - - -
18.04.2018 02:00:00 11,9 4,0 2 1 NW 1028,4 - 0,0
18.04.2018 01:00:00 - - - - - - - -
18.04.2018 00:00:00 - - - - - - - -
17.04.2018 23:00:00 14,6 4,5 4 2 - 1025,9 10 -
17.04.2018 22:00:00 19,0 2,0 8 4 N - 10 -
17.04.2018 21:00:00 21,0 2,0 9 5 N - 10 -
17.04.2018 20:00:00 22,6 -0,3 11 6 N 1021,5 10 0,0
17.04.2018 19:00:00 24,0 -1,0 16 9 - - 10 -
17.04.2018 18:00:00 25,0 4,0 16 9 NNE - 10 -
17.04.2018 17:00:00 26,1 -0,5 11 6 NNW 1019,3 10 -
17.04.2018 16:00:00 26,0 2,0 15 8 NW - 10 -
17.04.2018 15:00:00 26,0 6,0 5 3 W - 10 -
17.04.2018 14:00:00 23,7 5,5 4 2 W 1020,1 45 0,0
17.04.2018 13:00:00 23,0 7,0 0 0 N - 10 -
17.04.2018 12:00:00 21,0 8,0 0 0 N - 10 -
17.04.2018 11:00:00 20,5 6,4 0 0 N 1021,4 10 -
17.04.2018 10:00:00 16,0 7,0 5 3 E - 10 -
17.04.2018 09:00:00 14,0 8,0 0 0 N - 10 -
17.04.2018 08:00:00 10,1 6,8 0 0 N 1022,4 10 0,0
17.04.2018 07:00:00 9,0 7,0 8 4 SSE - 10 -
17.04.2018 06:00:00 - - - - - - - -
17.04.2018 05:00:00 10,7 6,2 4 2 S 1019,9 - -
17.04.2018 04:00:00 - - - - - - - -
17.04.2018 03:00:00 - - - - - - - -
17.04.2018 02:00:00 12,7 6,5 4 2 S 1018,4 - 0,0
17.04.2018 01:00:00 - - - - - - - -

tt = temperature
td = dewpoint
ff = wind speed
dd = wind direction
ppp = reduced air pressure
vv = visibility
rr = precipitation

Next stations